Hourly Data Report for December 04, 2003

SHERBROOKE A
QUEBEC

45°26'00.000" N
71°41'00.000" W
241.40 m
7028124
71610
YSC

Download Data

Hourly Data (December 2003)
Hourly Data Report for December 4, 2003
TIME
LST
Temp Definition
°C
Dew Point Definition
°C
Rel Hum Definition
%
Precip. Amount Definition
mm

Wind Dir Definition
10's deg

Wind Spd Definition
km/h
Visibility Definition
km
Stn Press Definition
kPa
Hmdx Definition


Wind Chill Definition


Weather Definition


00:00 -13.6 -16.0 82   25 4 15.0 99.69   -16  
01:00 -13.9 -16.1 83   23 4 15.0 99.66   -17  
02:00 -15.6 -17.7 84   24 6 15.0 99.66   -20  
03:00 -16.0 -18.1 84   25 4 15.0 99.64   -19  
04:00 -16.2 -18.4 83     0 15.0 99.63      
05:00 -17.5 -19.8 82     0 15.0 99.65      
06:00 -16.7 -18.9 83     0 3.5 99.69     Snow
07:00 -16.4 -18.8 82   23 4 9.7 99.70   -19 Snow
08:00 -14.9 -16.9 85     0 3.2 99.73     Snow
09:00 -12.3 -14.1 86   21 4 3.2 99.74   -15 Snow
10:00 -11.1 -12.9 87   28 7 12.9 99.74   -15 Snow Showers
11:00 -9.8 -12.7 79   28 15 24.1 99.67   -16 Mainly Clear
12:00 -8.6 -12.9 71   27 11 24.1 99.64   -14 Mainly Clear
13:00 -7.8 -14.8 57   31 19 24.1 99.60   -15 Snow Showers
14:00 -7.3 -14.4 57   29 20 24.1 99.60   -14 Mainly Clear
15:00 -7.7 -14.3 59   27 20 24.1 99.63   -15 Mainly Clear
16:00 -7.8 -15.6 53   30 19 24.1 99.67   -15 Mostly Cloudy
17:00 -9.2 -14.6 65   33 9 24.1 99.72   -14 Mostly Cloudy
18:00 -11.0 -14.5 75   33 6 15.0 99.78   -15  
19:00 -14.1 -16.8 80   30 4 15.0 99.82   -17  
20:00 -16.2 -18.8 80   28 4 15.0 99.83   -19  
21:00 -17.3 -19.8 81   23 6 15.0 99.84   -22  
22:00 -18.4 -20.7 82   29 4 15.0 99.83   -22  
23:00 -17.6 -20.3 79     0 15.0 99.84      

Notes on Data Quality.

Legend

  • E = Estimated
  • M = Missing
  • NA = Not Available*
  • [empty] = Indicates an unobserved value
Date modified: